New River MCAS, NC

4:33 PM EDT on April 24, 2017 (GMT -0400)
New River Marine Corps Air Station

Weather History for KNCA - December, 2014

Change the Weather History Date:

Monday, December 15, 2014

  Actual Average Record
Temperature  
Mean Temperature 45 °F -  
Max Temperature 60 °F 56 °F 73 °F (2015)
Min Temperature 30 °F 35 °F 16 °F (2010)
Degree Days  
Heating Degree Days 20    
Moisture  
Dew Point 34 °F    
Average Humidity 75    
Maximum Humidity 96    
Minimum Humidity 41    
Precipitation  
Precipitation 0.00 in - - ()
Sea Level Pressure  
Sea Level Pressure 30.10 in    
Wind  
Wind Speed 1 mph (SSE)    
Max Wind Speed 9 mph    
Max Gust Speed -    
Visibility 8 miles    
Events      
Averages and records for this station are not official NWS values.
T = Trace of Precipitation, MM = Missing Value Source: NWS Daily Summary

Daily Weather History Graph

Daily Weather History Graph

Search for Another Location

Airport or City:

Trip Planner

Search our weather history database for the weather conditions in past years. The results will help you decide how hot, cold, wet, or windy it might be!

Date:

Astronomy

Dec. 15, 2014 Rise Set
Actual Time 7:09 AM EST 5:00 PM EST
Civil Twilight 6:41 AM EST 5:28 PM EST
Nautical Twilight 6:10 AM EST 5:59 PM EST
Astronomical Twilight 5:39 AM EST 6:30 PM EST
Moon 12:40 AM EST (12/15) 12:46 PM EST (12/15)
Length of Visible Light 10h 46m
Length of Day
9h 50m
Last Quarter, 39% of the Moon is Illuminated
Dec 15
Last Quarter
Dec 21
New
Dec 28
First Quarter
Jan 4
Full
Jan 13
Last Quarter

Hourly Weather History & Observations

Time (EST) Temp. Windchill Dew Point Humidity Pressure Visibility Wind Dir Wind Speed Gust Speed Precip Events Conditions
12:56 AM 33.1 °F - 30.9 °F 92% 30.05 in 7.0 mi Calm Calm - N/A   Clear
1:56 AM 32.0 °F - 30.0 °F 92% 30.06 in 8.0 mi Calm Calm - N/A   Clear
2:56 AM 32.0 °F 28.7 °F 30.0 °F 92% 30.07 in 6.0 mi WNW 3.5 mph - N/A   Clear
3:56 AM 33.1 °F 30.0 °F 30.9 °F 92% 30.08 in 8.0 mi WSW 3.5 mph - N/A   Clear
4:56 AM 32.0 °F - 28.9 °F 88% 30.09 in 7.0 mi Calm Calm - N/A   Clear
5:56 AM 30.9 °F - 28.0 °F 89% 30.10 in 8.0 mi Calm Calm - N/A   Clear
6:56 AM 30.0 °F - 28.9 °F 96% 30.11 in 6.0 mi Calm Calm - N/A   Clear
7:56 AM 32.0 °F - 30.0 °F 92% 30.11 in 5.0 mi Calm Calm - N/A   Clear
8:56 AM 42.1 °F - 36.0 °F 79% 30.12 in 7.0 mi Calm Calm - N/A   Clear
9:56 AM 48.0 °F - 37.9 °F 68% 30.14 in 8.0 mi Calm Calm - N/A   Clear
10:56 AM 54.0 °F - 39.0 °F 57% 30.14 in 9.0 mi Calm Calm - N/A   Clear
11:56 AM 57.0 °F - 36.0 °F 45% 30.12 in 10.0 mi Calm Calm - N/A   Clear
12:56 PM 57.9 °F - 35.1 °F 42% 30.09 in 10.0 mi East 6.9 mph - N/A   Clear
1:56 PM 60.1 °F - 36.0 °F 41% 30.08 in 10.0 mi ENE 5.8 mph - N/A   Clear
2:56 PM 60.1 °F - 37.0 °F 42% 30.08 in 10.0 mi SSE 9.2 mph - N/A   Clear
3:56 PM 57.0 °F - 36.0 °F 45% 30.09 in 10.0 mi South 8.1 mph - N/A   Clear
4:56 PM 52.0 °F - 36.0 °F 54% 30.10 in 10.0 mi South 3.5 mph - N/A   Clear
5:56 PM 48.0 °F - 39.0 °F 71% 30.10 in 10.0 mi SSE 4.6 mph - N/A   Clear
6:56 PM 45.0 °F - 39.0 °F 80% 30.11 in 10.0 mi Calm Calm - N/A   Clear
7:56 PM 41.0 °F - 37.0 °F 86% 30.12 in 10.0 mi Calm Calm - N/A   Clear
8:56 PM 39.0 °F - 37.0 °F 93% 30.12 in 10.0 mi Calm Calm - N/A   Clear
9:56 PM 39.0 °F - 37.0 °F 93% 30.12 in 7.0 mi Calm Calm - N/A   Clear
10:56 PM 37.0 °F - 35.1 °F 93% 30.13 in 7.0 mi Calm Calm - N/A   Clear
11:56 PM 37.0 °F - 34.0 °F 89% 30.12 in 9.0 mi Calm Calm - N/A   Clear